{"data":{"norad_id":64776,"intl_designator":"2025-147X","name":"STARLINK-34637","alt_names":[],"object_type":"PAYLOAD","status":"ACTIVE","operator":null,"country":"US","launch_date":"2025-07-08","launch_site_code":"AFETR","launch_vehicle":null,"mission":null,"orbit_class":"UNKNOWN","rcs_meters":null,"size_class":null,"mass_kg":null,"dimensions":null,"purposes":["comms"],"wikipedia_slug":null,"has_3d_model":false,"image_url":null,"decayed_at":null,"tle_current":{"epoch":"2026-09-18T23:57:02.056608Z","epoch_age_seconds":257425,"freshness":"STALE","line1":"1 64776U 25147X   26261.99794047  .00016412  00000+0  49582-3 0  9999","line2":"2 64776  53.1580  60.9141 0001356  47.1912 312.9204 15.34398422 68336","mean_motion":15.34398422,"eccentricity":0.0001356,"inclination_deg":53.158,"raan_deg":60.9141,"arg_perigee_deg":47.1912,"mean_anomaly_deg":312.9204,"bstar":0.00049582,"rev_number":6833,"period_min":93.847854595878,"perigee_km":461.78031178712,"apogee_km":463.63554893223,"semimajor_km":6840.8449303597,"source":"CELESTRAK","updated_at":"2026-09-21T09:00:35.440429Z"}}}